Location: D�pe
(52.6057°N, 8.1808°E)
Time: 01:49:07
(UTC+00:00)

SAR-Lupe-1 - Pass Details

Date: 29 October 2020
Orbit: 480 x 485 km, 98.2° (Epoch: 22 November)

Event Time Altitude Azimuth Distance (km) Brightness Sun altitude
Rises 17:20:25 0° 18° (NNE) 2,559 7.5 -12.3°
Reaches altitude 10° 17:22:32 10° 23° (NNE) 1,674 6.5 -12.6°
Maximum altitude 17:26:03 54° 101° (ESE) 596 4.1 -13.2°
Drops below altitude 10° 17:29:34 10° 180° (S) 1,662 6.8 -13.7°
Sets 17:31:39 0° 185° (S) 2,537 7.8 -14.0°
